Location: Fours
(44.3167°N, 6.7000°E)
Time: 20:40:02
(UTC+00:00)

Cosmos 2082 - Pass Details

Date: 16 October 2021
Orbit: 835 x 853 km, 71.0° (Epoch: 29 November)

Event Time Altitude Azimuth Distance (km) Brightness Sun altitude
Rises 18:08:22 0° 332° (NNW) 3,395 7.3 -15.3°
Reaches altitude 10° 18:10:49 10° 330° (NNW) 2,456 6.5 -15.7°
Maximum altitude 18:16:25 69° 249° (WSW) 896 4.0 -16.7°
Drops below altitude 10° 18:21:57 10° 167° (SSE) 2,440 5.9 -17.7°
Sets 18:24:24 0° 165° (SSE) 3,372 6.6 -18.1°
